GW5989 Weather Reports


time (UTC)temp
F
wind
direction
speed
knots
gust
knots
rain 1hr
in
rain 24hr
in
rain mn
in
humidity
%
barometer
mb
20260510072506 70 200 0.0 1.7 0.00 0.50 0.00 85 1011.6
20260510072008 70 217 0.0 1.7 0.00 0.50 0.00 85 1011.8
20260510071524 70 201 0.0 1.7 0.00 0.50 0.00 84 1011.8
20260510071009 70 131 0.0 2.6 0.00 0.50 0.00 84 1011.9
20260510070507 70 128 0.9 2.6 0.00 0.50 0.00 84 1011.8
20260510070022 70 128 0.0 3.5 0.00 0.50 0.00 84 1011.8
20260510065508 70 121 0.0 3.5 0.00 0.50 0.00 83 1011.7
20260510065010 70 109 0.9 2.6 0.00 0.50 0.00 83 1011.8
20260510064521 70 144 1.7 2.6 0.00 0.50 0.00 83 1011.7
20260510064008 70 123 0.0 3.5 0.00 0.50 0.00 83 1011.6
20260510063507 70 109 0.9 3.5 0.00 0.50 0.00 83 1011.6
20260510063034 70 116 1.7 3.5 0.00 0.50 0.00 82 1011.5
20260510062511 70 83 0.0 2.6 0.00 0.50 0.00 82 1011.5
20260510062008 71 128 0.9 2.6 0.00 0.50 0.00 82 1011.6
20260510061515 71 128 0.0 1.7 0.00 0.50 0.00 81 1011.5
20260510061008 71 89 0.0 2.6 0.00 0.50 0.00 80 1011.5
20260510060507 71 123 0.9 2.6 0.00 0.50 0.00 80 1011.5
20260510060023 71 112 1.7 3.5 0.00 0.50 0.00 79 1011.5
20260510055507 71 137 1.7 3.5 0.00 0.50 0.00 79 1011.5
20260510055009 72 115 0.9 2.6 0.00 0.50 0.00 79 1011.4
20260510054526 72 119 0.9 3.5 0.00 0.50 0.00 79 1011.4
20260510054010 72 96 1.7 3.5 0.00 0.50 0.00 78 1011.4
20260510053514 72 134 0.9 2.6 0.00 0.50 0.00 78 1011.4
20260510053022 72 125 0.9 2.6 0.00 0.50 0.00 78 1011.4
20260510052511 72 102 0.9 2.6 0.00 0.50 0.00 78 1011.6
20260510052008 73 111 0.9 2.6 0.00 0.50 0.00 78 1011.6
20260510051529 73 119 0.0 1.7 0.00 0.50 0.00 78 1011.5
20260510051008 73 136 0.9 1.7 0.00 0.50 0.00 78 1011.4
20260510050508 73 122 0.0 1.7 0.00 0.50 0.00 78 1011.4
20260510050019 73 116 0.0 1.7 0.00 0.50 0.00 78 1011.4
20260510045506 73 121 0.0 1.7 0.00 0.50 0.50 78 1011.4
20260510045008 73 115 0.0 1.7 0.00 0.50 0.50 78 1011.4
20260510044521 73 94 0.0 1.7 0.00 0.50 0.50 78 1011.3
20260510044009 73 94 0.9 1.7 0.00 0.50 0.50 78 1011.3
20260510043510 73 94 0.9 1.7 0.00 0.50 0.50 79 1011.3
20260510043026 73 94 0.9 0.9 0.00 0.50 0.50 79 1011.4
20260510042508 74 94 0.9 1.7 0.00 0.50 0.50 79 1011.3
20260510042009 74 94 0.9 1.7 0.00 0.50 0.50 78 1011.3
20260510041524 74 94 0.0 1.7 0.00 0.50 0.50 79 1011.2
20260510041009 74 94 0.9 2.6 0.00 0.50 0.50 81 1011.3
20260510040510 74 89 1.7 2.6 0.00 0.50 0.50 82 1011.2
20260510040024 74 138 0.0 1.7 0.00 0.50 0.50 82 1011.1
20260510035505 74 138 0.0 1.7 0.00 0.50 0.50 80 1011.1
20260510035005 75 138 0.0 0.0 0.00 0.50 0.50 79 1011.0
20260510034526 75 138 0.0 1.7 0.00 0.50 0.50 79 1011.0
20260510034009 75 145 0.0 1.7 0.00 0.50 0.50 79 1011.0
20260510033511 76 145 0.0 1.7 0.00 0.50 0.50 79 1010.9
20260510033024 76 145 0.0 1.7 0.00 0.50 0.50 79 1010.8
20260510032509 76 145 0.0 1.7 0.00 0.50 0.50 79 1010.7
20260510032011 76 145 0.0 1.7 0.00 0.50 0.50 79 1010.7
20260510031531 76 118 0.9 1.7 0.00 0.50 0.50 79 1010.7
20260510030507 76 117 0.9 2.6 0.00 0.50 0.50 79 1010.5
20260510030016 77 117 0.9 2.6 0.00 0.50 0.50 78 1010.4
20260510025510 77 130 0.9 1.7 0.00 0.50 0.50 78 1010.3
20260510025009 77 125 0.0 1.7 0.00 0.50 0.50 78 1010.2
20260510024522 77 104 0.0 1.7 0.00 0.50 0.50 78 1010.1
20260510024013 77 124 0.0 2.6 0.00 0.50 0.50 78 1010.0
20260510023508 77 130 0.9 2.6 0.00 0.50 0.50 78 1010.1
20260510023024 78 132 0.9 2.6 0.00 0.50 0.50 78 1010.1
20260510022508 78 130 0.9 1.7 0.00 0.50 0.50 78 1010.0
20260510022009 78 132 0.9 5.2 0.00 0.50 0.50 77 1010.0
20260510021533 78 119 0.9 5.2 0.00 0.50 0.50 76 1010.0
20260510021012 79 120 1.7 3.5 0.00 0.50 0.50 77 1009.9
20260510020508 79 121 0.9 2.6 0.00 0.50 0.50 77 1009.8
20260510020028 79 137 0.9 1.7 0.00 0.50 0.50 77 1009.7
20260510015504 80 114 0.9 1.7 0.00 0.50 0.50 76 1009.7
20260510015008 80 99 0.9 2.6 0.00 0.50 0.50 76 1009.6
20260510014517 80 113 0.9 3.5 0.00 0.50 0.50 76 1009.6
20260510014008 80 107 0.9 4.3 0.00 0.50 0.50 75 1009.6
20260510013511 81 94 1.7 7.0 0.00 0.50 0.50 74 1009.5
20260510013023 81 91 1.7 7.0 0.00 0.50 0.50 74 1009.4
20260510012507 81 100 2.6 6.1 0.00 0.50 0.50 73 1009.3
20260510012008 81 91 0.9 2.6 0.00 0.50 0.50 73 1009.3
20260510011524 82 84 0.9 2.6 0.00 0.50 0.50 72 1009.3
20260510011010 82 105 0.9 5.2 0.00 0.50 0.50 72 1009.3
20260510010508 82 126 1.7 3.5 0.00 0.50 0.50 71 1009.3
20260510010010 83 120 1.7 3.5 0.00 0.50 0.50 71 1009.3
20260510005505 83 146 0.9 3.5 0.00 0.50 0.50 70 1009.2
20260510005004 83 146 1.7 4.3 0.00 0.50 0.50 70 1009.2
20260510004518 83 54 1.7 5.2 0.00 0.50 0.50 70 1009.2
20260510004012 83 134 2.6 5.2 0.00 0.50 0.50 70 1009.2
20260510003507 84 111 3.5 5.2 0.00 0.50 0.50 69 1009.1
20260510003004 84 92 1.7 5.2 0.00 0.50 0.50 69 1009.0
20260510002502 84 84 1.7 5.2 0.00 0.50 0.50 68 1009.0
20260510002003 84 98 1.7 5.2 0.00 0.50 0.50 68 1009.0
20260510001004 84 115 2.6 3.5 0.00 0.50 0.50 67 1008.8
20260510000503 84 106 1.7 3.5 0.00 0.50 0.50 67 1008.8
20260510000010 84 88 1.7 3.5 0.00 0.50 0.50 67 1008.8
20260509235502 84 74 2.6 4.3 0.00 0.50 0.50 67 1008.8
20260509235008 84 65 2.6 5.2 0.00 0.50 0.50 67 1008.8
20260509234007 84 69 2.6 5.2 0.00 0.50 0.50 66 1008.7
20260509233503 84 89 1.7 3.5 0.00 0.50 0.50 67 1008.7
20260509232507 84 70 2.6 6.1 0.00 0.50 0.50 65 1008.5
20260509232003 84 85 3.5 6.1 0.00 0.50 0.50 65 1008.5
20260509231503 84 64 2.6 7.0 0.00 0.50 0.50 65 1008.5
20260509231004 84 65 2.6 7.0 0.00 0.50 0.50 67 1008.5
20260509230504 85 57 2.6 7.0 0.00 0.50 0.50 64 1008.5
20260509230008 85 94 2.6 5.2 0.00 0.50 0.50 66 1008.5
20260509225505 85 75 2.6 7.0 0.00 0.50 0.50 66 1008.6
20260509225004 85 64 1.7 7.0 0.00 0.50 0.50 65 1008.6
20260509224007 85 80 3.5 5.2 0.00 0.50 0.50 62 1008.5
20260509223503 85 114 1.7 3.5 0.00 0.50 0.50 61 1008.6
20260509223019 85 141 1.7 4.3 0.00 0.50 0.50 58 1008.6
20260509222506 85 128 1.7 4.3 0.00 0.50 0.50 56 1008.6
20260509222008 85 105 1.7 4.3 0.00 0.50 0.50 59 1008.6
20260509221522 85 133 0.9 2.6 0.00 0.50 0.50 60 1008.6
20260509221009 84 144 0.0 1.7 0.00 0.50 0.50 59 1008.6
20260509220503 83 102 0.0 1.7 0.00 0.50 0.50 60 1008.5
20260509220004 84 216 0.0 1.7 0.00 0.50 0.50 61 1008.3
20260509215504 83 213 0.0 2.6 0.00 0.50 0.50 63 1008.3
20260509215003 82 179 0.9 3.5 0.00 0.50 0.50 60 1008.5
20260509214011 79 225 0.9 5.2 0.09 0.50 0.50 65 1008.6
20260509213504 78 223 1.7 6.1 0.19 0.50 0.50 65 1008.6
20260509212507 74 218 2.6 7.8 0.45 0.50 0.50 72 1008.9
20260509212007 72 250 3.5 7.8 0.48 0.50 0.50 73 1009.0
20260509211520 71 229 2.6 7.0 0.48 0.50 0.50 71 1009.0
20260509211008 71 241 2.6 9.6 0.48 0.50 0.50 70 1009.1
20260509210507 71 179 3.5 9.6 0.48 0.50 0.50 72 1009.4
20260509210030 71 279 4.3 9.6 0.48 0.50 0.50 75 1009.1
20260509205504 71 243 4.3 10.4 0.48 0.50 0.50 71 1009.0
20260509205005 70 217 5.2 15.6 0.48 0.50 0.50 73 1009.0
20260509204509 70 215 4.3 17.4 0.47 0.49 0.49 77 1009.0
20260509204004 70 226 11.3 17.4 0.39 0.41 0.41 75 1009.7
20260509203503 72 257 8.7 25.2 0.29 0.31 0.31 65 1010.1
20260509203014 76 305 12.2 27.8 0.18 0.20 0.20 61 1010.6
20260509202504 80 326 10.4 27.8 0.03 0.05 0.05 64 1010.4
20260509202006 83 360 9.6 15.6 0.00 0.02 0.02 65 1009.5
20260509201010 87 93 2.6 6.1 0.00 0.02 0.02 59 1009.5
20260509200507 88 98 0.9 4.3 0.00 0.02 0.02 58 1009.4
20260509200020 89 176 0.9 7.0 0.00 0.02 0.02 56 1009.5
20260509195511 89 88 2.6 7.0 0.00 0.02 0.02 57 1009.5
20260509195012 90 150 2.6 7.0 0.00 0.02 0.02 59 1009.5
20260509194004 89 146 1.7 6.1 0.00 0.02 0.02 58 1009.6
20260509193506 89 217 1.7 8.7 0.00 0.02 0.02 59 1009.7
20260509192504 88 74 0.9 6.1 0.00 0.02 0.02 61 1009.8
20260509192005 89 126 1.7 6.1 0.00 0.02 0.02 58 1009.9
20260509191007 88 126 1.7 3.5 0.00 0.02 0.02 60 1009.9
20260509190506 89 144 1.7 6.1 0.00 0.02 0.02 60 1010.1
20260509185509 89 67 1.7 6.1 0.00 0.02 0.02 63 1010.2
20260509185007 88 148 1.7 5.2 0.00 0.02 0.02 64 1010.3
20260509184526 88 226 2.6 5.2 0.00 0.02 0.02 61 1010.3
20260509184010 87 188 1.7 6.1 0.00 0.02 0.02 63 1010.5
20260509183503 87 236 1.7 4.3 0.00 0.02 0.02 63 1010.7
20260509183009 86 352 0.9 3.5 0.00 0.02 0.02 64 1010.7
20260509182505 85 252 0.9 4.3 0.00 0.02 0.02 68 1010.9
20260509182003 86 9 0.9 4.3 0.00 0.02 0.02 66 1010.9
20260509181517 87 252 0.9 7.0 0.00 0.02 0.02 68 1010.9
20260509181008 85 126 2.6 7.0 0.00 0.02 0.02 67 1011.0
20260509180508 85 325 0.9 6.1 0.00 0.02 0.02 65 1011.0
20260509180019 86 207 0.9 7.0 0.00 0.02 0.02 70 1011.0
20260509175508 85 256 1.7 7.0 0.00 0.02 0.02 67 1011.0
20260509174007 84 263 0.9 6.1 0.00 0.02 0.02 71 1011.3
20260509173507 84 271 1.7 7.0 0.00 0.02 0.02 70 1011.4
20260509173024 85 213 2.6 7.0 0.00 0.02 0.02 70 1011.5
20260509172512 84 173 2.6 6.1 0.00 0.02 0.02 73 1011.6
20260509172004 83 160 1.7 6.1 0.00 0.02 0.02 73 1011.6
20260509171010 83 204 1.7 6.1 0.00 0.02 0.02 74 1011.6
20260509170507 82 113 1.7 6.1 0.00 0.02 0.02 76 1011.6
20260509165505 80 181 1.7 5.2 0.00 0.02 0.02 78 1011.8
20260509165006 80 153 1.7 5.2 0.00 0.02 0.02 79 1011.8
20260509164010 80 252 0.9 3.5 0.00 0.02 0.02 80 1011.9
20260509163510 80 248 0.9 3.5 0.00 0.02 0.02 80 1011.8
20260509162011 79 139 1.7 3.5 0.00 0.02 0.02 81 1011.8
20260509161525 79 195 0.9 4.3 0.00 0.02 0.02 82 1011.7
20260509161010 78 200 1.7 4.3 0.00 0.02 0.02 82 1011.7
20260509160504 79 128 0.9 3.5 0.00 0.02 0.02 83 1011.8
20260509160022 79 196 0.9 3.5 0.00 0.02 0.02 82 1011.7
20260509155509 78 216 1.7 3.5 0.00 0.02 0.02 82 1011.6
20260509155009 78 156 0.9 3.5 0.00 0.02 0.02 83 1011.6
20260509153508 79 164 1.7 5.2 0.00 0.02 0.02 82 1011.6
20260509152504 78 172 0.9 4.3 0.00 0.02 0.02 84 1011.5
20260509152006 78 225 0.9 4.3 0.00 0.02 0.02 85 1011.6
20260509151509 77 237 1.7 4.3 0.00 0.02 0.02 84 1011.7
20260509150504 77 153 0.9 5.2 0.00 0.02 0.02 86 1011.8
20260509145504 77 209 0.0 4.3 0.00 0.02 0.02 92 1011.6
20260509145008 76 182 0.9 4.3 0.00 0.02 0.02 92 1011.5
20260509144012 74 204 1.7 7.8 0.00 0.02 0.02 94 1011.7
20260509143512 74 65 1.7 7.8 0.00 0.02 0.02 94 1011.3
20260509142008 74 144 2.6 4.3 0.00 0.02 0.02 94 1011.4
20260509141510 73 94 0.9 3.5 0.00 0.02 0.02 95 1011.4
20260509141004 73 131 0.9 3.5 0.00 0.02 0.02 95 1011.5
20260509140503 73 133 0.9 1.7 0.00 0.02 0.02 94 1011.6
20260509140010 73 121 0.0 1.7 0.00 0.02 0.02 95 1011.8
20260509135505 73 132 0.9 1.7 0.00 0.02 0.02 95 1011.7
20260509135005 73 120 0.0 1.7 0.00 0.02 0.02 95 1011.6
20260509134010 73 136 0.0 1.7 0.00 0.02 0.02 95 1011.5
20260509133507 73 129 0.0 1.7 0.00 0.02 0.02 95 1011.5
20260509133021 73 137 0.9 1.7 0.00 0.02 0.02 95 1011.6
20260509132511 73 130 0.0 3.5 0.00 0.02 0.02 95 1011.6
20260509132010 73 136 0.0 5.2 0.00 0.02 0.02 94 1011.6
20260509131536 73 130 0.9 5.2 0.00 0.02 0.02 94 1011.5
20260509131011 73 121 1.7 4.3 0.00 0.02 0.02 94 1011.3
20260509130504 73 148 0.9 2.6 0.00 0.02 0.02 94 1011.3
20260509125511 72 129 0.9 5.2 0.00 0.02 0.02 94 1011.2
20260509125008 73 140 0.9 3.5 0.00 0.02 0.02 94 1011.2
20260509124520 72 140 1.7 3.5 0.00 0.02 0.02 94 1011.3
20260509124003 72 135 0.9 1.7 0.00 0.02 0.02 94 1011.3
20260509123506 72 127 0.0 2.6 0.00 0.02 0.02 94 1011.1
20260509123019 73 254 0.0 2.6 0.00 0.02 0.02 94 1010.8
20260509122507 73 266 0.9 5.2 0.00 0.02 0.02 95 1010.9
20260509122008 72 320 2.6 5.2 0.00 0.02 0.02 94 1011.1
20260509121527 72 324 2.6 4.3 0.00 0.02 0.02 94 1011.0
20260509121011 72 329 1.7 4.3 0.00 0.02 0.02 94 1011.0
20260509120507 72 317 1.7 4.3 0.00 0.02 0.02 94 1010.9
20260509120025 72 318 2.6 4.3 0.01 0.02 0.02 94 1011.0
20260509115503 72 316 1.7 4.3 0.01 0.02 0.02 94 1011.3
20260509115003 72 352 1.7 3.5 0.01 0.02 0.02 94 1011.4
20260509114008 72 321 2.6 6.1 0.01 0.02 0.02 94 1011.4
20260509113503 72 302 1.7 4.3 0.01 0.02 0.02 94 1011.4
20260509112507 72 346 0.0 1.7 0.01 0.02 0.02 94 1011.3
20260509112007 72 352 0.9 2.6 0.01 0.02 0.02 94 1011.7
20260509111522 72 331 0.0 3.5 0.01 0.02 0.02 94 1011.8
20260509111008 72 22 0.9 6.1 0.01 0.02 0.02 94 1011.9
20260509110509 72 352 3.5 6.1 0.01 0.02 0.02 94 1011.8
20260509110024 72 32 1.7 4.3 0.00 0.01 0.01 94 1012.0
20260509105511 72 28 0.9 3.5 0.00 0.01 0.01 94 1012.0
20260509105010 72 50 1.7 3.5 0.00 0.01 0.01 94 1012.1
20260509104527 72 360 1.7 2.6 0.00 0.01 0.01 94 1011.9
20260509104004 72 319 0.9 2.6 0.00 0.01 0.01 94 1011.8
20260509103504 72 15 0.9 2.6 0.00 0.01 0.01 94 1011.8
20260509103015 72 360 1.7 2.6 0.00 0.01 0.01 94 1011.9
20260509102507 72 34 0.0 1.7 0.00 0.01 0.01 94 1011.8
20260509102010 72 36 0.0 0.0 0.00 0.01 0.01 94 1011.6
20260509101532 72 36 0.0 0.0 0.00 0.01 0.01 94 1011.3
20260509101008 72 36 0.0 0.0 0.00 0.01 0.01 94 1011.2
20260509100507 72 36 0.0 0.9 0.00 0.01 0.01 94 1011.1
20260509100025 72 36 0.0 0.9 0.00 0.01 0.01 94 1011.1
20260509095508 72 36 0.0 0.9 0.00 0.01 0.01 94 1010.9
20260509095008 72 36 0.0 0.0 0.01 0.01 0.01 94 1010.8
20260509094526 72 36 0.0 0.9 0.01 0.01 0.01 94 1010.8
20260509094008 72 36 0.0 0.9 0.01 0.01 0.01 94 1010.7
20260509093012 72 36 0.0 1.7 0.01 0.01 0.01 94 1010.9
20260509092504 72 36 0.0 1.7 0.01 0.01 0.01 94 1010.9
20260509092004 72 36 0.0 1.7 0.01 0.01 0.01 94 1010.7
20260509091520 72 36 0.0 1.7 0.01 0.01 0.01 94 1010.6
20260509091004 72 36 0.0 1.7 0.01 0.01 0.01 94 1010.5
20260509090508 72 36 0.9 1.7 0.01 0.01 0.01 93 1010.6
20260509090021 72 36 0.9 1.7 0.01 0.01 0.01 93 1010.7
20260509085508 72 36 0.0 1.7 0.01 0.01 0.01 93 1010.7
20260509085007 72 36 0.9 2.6 0.00 0.00 0.00 93 1010.8
20260509084523 72 36 0.9 2.6 0.00 0.00 0.00 93 1010.8
20260509084006 72 36 0.9 3.5 0.00 0.00 0.00 93 1010.8
20260509083513 72 48 1.7 3.5 0.00 0.00 0.00 93 1010.9
20260509083025 72 40 1.7 3.5 0.00 0.00 0.00 93 1010.9
20260509082511 72 63 1.7 2.6 0.00 0.00 0.00 93 1011.0
20260509082007 72 13 1.7 2.6 0.00 0.00 0.00 93 1011.1
20260509081514 72 31 1.7 2.6 0.00 0.00 0.00 93 1011.2
20260509081008 72 25 0.9 2.6 0.00 0.00 0.00 93 1011.2
20260509080506 72 63 0.0 2.6 0.00 0.00 0.00 93 1010.9
20260509080022 72 65 0.9 1.7 0.00 0.00 0.00 93 1010.7
20260509075505 72 102 0.0 2.6 0.00 0.00 0.00 92 1010.7
20260509075008 72 102 0.9 2.6 0.00 0.00 0.00 92 1010.7
20260509074522 72 102 0.9 2.6 0.00 0.00 0.00 92 1010.8
20260509074008 72 98 0.9 1.7 0.00 0.00 0.00 92 1010.7
20260509073508 72 165 0.9 1.7 0.00 0.00 0.00 92 1010.9
20260509073025 72 119 0.0 2.6 0.00 0.00 0.00 92 1011.1